Date String (YYYY-MM-DD hh:mm:ss) UTC,Instrument flags,Ambient pressure (hPa),Sample flow (lpm),Bypass flow (lpm),Sample temperature (°C),Ambient temperature (°C),ASC tube jacket temperature (°C),LED temperature (°C),Box temperature (°C),Sample RH (%),Span deviation,Mass concentration (μg/m³),Mass concentration (μg/m³),Mass concentration (μg/m³)
DateTimeUTC,F1_M11,P_M11,Q1_M11,Q2_M11,T1_M11,T2_M11,T3_M11,T4_M11,T5_M11,U1_M11,ZSPAN_M11,X0_M11,X2_M11,X1_M11
2022-04-28 12:00:00,,0821.5,5.01,0.00,25.6,25.1,00.0,34.6,27.4,13.3,0000.5,0025.59,0009.20,0005.37
2022-04-28 12:01:00,,0821.4,5.00,0.00,25.6,25.1,00.0,34.6,27.4,13.2,0001.4,0025.30,0009.16,0005.36
2022-04-28 12:02:00,,0821.4,5.00,0.00,25.6,25.1,00.0,34.6,27.4,13.2,0002.4,0025.86,0009.17,0005.34
2022-04-28 12:03:00,,0821.4,5.00,0.00,25.6,25.1,00.0,34.6,27.4,13.5,0002.9,0026.04,0009.16,0005.34
2022-04-28 12:04:00,,0821.4,5.00,0.00,25.6,25.1,00.0,34.6,27.5,13.7,0002.7,0026.47,0009.21,0005.34
2022-04-28 12:05:00,,0821.4,4.99,0.00,25.7,25.2,00.0,34.6,27.5,13.8,0002.2,0025.69,0009.20,0005.32
2022-04-28 12:06:00,,0821.4,5.01,0.00,25.6,25.2,00.0,34.6,27.5,13.6,0001.8,0024.68,0009.27,0005.34
2022-04-28 12:07:00,,0821.4,5.00,0.00,25.6,25.2,00.0,34.6,27.4,13.0,0002.7,0024.89,0009.27,0005.37
2022-04-28 12:08:00,,0821.4,5.00,0.00,25.6,25.2,00.0,34.6,27.5,13.1,0000.9,0024.53,0009.21,0005.39
2022-04-28 12:09:00,,0821.4,4.99,0.00,25.7,25.2,00.0,34.6,27.5,13.1,0000.6,0025.07,0009.13,0005.39
2022-04-28 12:10:00,,0821.4,5.00,0.00,25.7,25.2,00.0,34.6,27.5,13.1,0000.3,0025.90,0009.26,0005.42
2022-04-28 12:11:00,,0821.5,5.00,0.00,25.7,25.2,00.0,34.6,27.5,13.1,0000.0,0026.23,0009.32,0005.43
2022-04-28 12:12:00,,0821.5,5.00,0.00,25.7,25.2,00.0,34.6,27.5,12.9,0000.5,0026.21,0009.32,0005.45
2022-04-28 12:13:00,,0821.5,5.01,0.00,25.7,25.2,00.0,34.6,27.5,12.9,0002.4,0025.53,0009.28,0005.48
2022-04-28 12:14:00,,0821.5,5.00,0.00,25.6,25.2,00.0,34.6,27.5,12.6,0002.1,0026.24,0009.30,0005.51
2022-04-28 12:15:00,,0821.4,5.00,0.00,25.6,25.1,00.0,34.6,27.4,12.3,0002.1,0025.72,0009.24,0005.53
2022-04-28 12:16:00,,0821.4,5.01,0.00,25.6,25.1,00.0,34.6,27.4,12.4,0002.3,0026.34,0009.34,0005.56
2022-04-28 12:17:00,,0821.4,4.99,0.00,25.6,25.0,00.0,34.6,27.4,12.5,0003.0,0026.39,0009.41,0005.57
2022-04-28 12:18:00,,0821.4,4.99,0.00,25.6,24.9,00.0,34.6,27.3,12.5,0002.8,0026.45,0009.44,0005.57
2022-04-28 12:19:00,,0821.4,5.00,0.00,25.5,24.9,00.0,34.6,27.3,12.4,0004.4,0026.67,0009.60,0005.58
2022-04-28 12:20:00,,0821.4,5.01,0.00,25.5,24.8,00.0,34.6,27.2,12.4,0004.0,0026.34,0009.66,0005.61
2022-04-28 12:21:00,,0821.4,5.00,0.00,25.5,24.8,00.0,34.6,27.2,12.4,0004.0,0025.38,0009.64,0005.62
2022-04-28 12:22:00,,0821.5,4.99,0.00,25.5,24.8,00.0,34.6,27.2,12.4,0004.3,0024.98,0009.68,0005.64
2022-04-28 12:23:00,,0821.4,4.99,0.00,25.5,24.9,00.0,34.5,27.3,12.4,0004.6,0025.04,0009.72,0005.64
2022-04-28 12:24:00,,0821.4,5.00,0.00,25.5,24.9,00.0,34.5,27.3,12.5,0004.7,0025.78,0009.76,0005.63
2022-04-28 12:25:00,,0821.4,5.00,0.00,25.5,24.9,00.0,34.5,27.3,12.4,0004.7,0025.34,0009.77,0005.61
2022-04-28 12:26:00,,0821.4,5.00,0.00,25.5,24.9,00.0,34.5,27.2,12.5,0004.7,0024.97,0009.79,0005.60
2022-04-28 12:27:00,,0821.4,5.00,0.00,25.4,24.8,00.0,34.5,27.2,12.6,0004.5,0024.50,0009.80,0005.60
2022-04-28 12:28:00,,0821.4,5.00,0.00,25.4,24.8,00.0,34.5,27.1,12.6,0004.5,0024.74,0009.78,0005.61
2022-04-28 12:29:00,,0821.4,5.00,0.00,25.4,24.7,00.0,34.5,27.1,12.6,0004.3,0024.86,0009.72,0005.61
2022-04-28 12:30:00,,0821.5,5.00,0.00,25.4,24.7,00.0,34.5,27.1,12.5,0004.1,0024.88,0009.65,0005.61
2022-04-28 12:31:00,,0821.5,5.01,0.00,25.3,24.7,00.0,34.5,27.1,12.5,0004.3,0025.64,0009.70,0005.60
2022-04-28 12:32:00,,0821.5,5.00,0.00,25.3,24.7,00.0,34.4,27.0,12.5,0004.3,0026.36,0009.73,0005.60
2022-04-28 12:33:00,,0821.5,5.00,0.00,25.3,24.7,00.0,34.4,27.1,12.5,0003.9,0026.85,0009.78,0005.60
2022-04-28 12:34:00,,0821.5,5.00,0.00,25.3,24.7,00.0,34.4,27.1,12.6,0003.2,0027.02,0009.79,0005.61
2022-04-28 12:35:00,,0821.5,5.01,0.00,25.3,24.8,00.0,34.4,27.1,12.6,0002.7,0026.23,0009.82,0005.61
2022-04-28 12:36:00,,0821.6,5.00,0.00,25.4,24.8,00.0,34.4,27.2,12.4,0002.7,0026.50,0009.88,0005.62
2022-04-28 12:37:00,,0821.5,5.00,0.00,25.4,24.9,00.0,34.4,27.2,12.5,0002.6,0026.65,0009.95,0005.62
2022-04-28 12:38:00,,0821.5,4.99,0.00,25.4,24.9,00.0,34.4,27.3,12.6,0002.8,0027.09,0009.95,0005.63
2022-04-28 12:39:00,,0821.5,4.99,0.00,25.5,25.0,00.0,34.4,27.3,12.7,0002.4,0026.92,0009.92,0005.62
2022-04-28 12:40:00,,0821.4,5.00,0.00,25.5,25.1,00.0,34.4,27.4,12.8,0003.2,0026.65,0009.98,0005.63
2022-04-28 12:41:00,,0821.4,5.00,0.00,25.5,25.1,00.0,34.4,27.4,12.9,0002.7,0027.29,0009.90,0005.63
2022-04-28 12:42:00,,0821.4,5.00,0.00,25.5,25.1,00.0,34.4,27.4,12.9,0002.5,0028.62,0009.87,0005.63
2022-04-28 12:43:00,,0821.6,5.00,0.00,25.6,25.2,00.0,34.5,27.4,12.9,0002.4,0028.28,0009.89,0005.62
2022-04-28 12:44:00,,0821.4,5.00,0.00,25.6,25.2,00.0,34.5,27.4,13.0,0002.6,0028.22,0009.94,0005.61
2022-04-28 12:45:00,,0821.4,5.00,0.00,25.6,25.1,00.0,34.5,27.4,13.3,0002.8,0029.17,0010.02,0005.58
2022-04-28 12:46:00,,0821.4,5.00,0.00,25.5,25.1,00.0,34.5,27.3,12.8,0002.8,0029.69,0009.98,0005.58
2022-04-28 12:47:00,,0821.4,5.00,0.00,25.5,25.1,00.0,34.5,27.3,12.9,0002.4,0028.81,0009.92,0005.58
2022-04-28 12:48:00,,0821.4,5.01,0.00,25.5,25.0,00.0,34.5,27.3,12.8,0001.1,0028.33,0009.89,0005.58
2022-04-28 12:49:00,,0821.5,4.99,0.00,25.5,25.0,00.0,34.5,27.3,12.8,0000.9,0028.45,0009.91,0005.57
2022-04-28 12:50:00,,0821.5,5.00,0.00,25.5,25.0,00.0,34.5,27.4,12.8,0001.1,0029.82,0010.02,0005.59
2022-04-28 12:51:00,,0821.5,5.01,0.00,25.6,25.1,00.0,34.5,27.4,13.3,0000.2,0030.46,0010.03,0005.59
2022-04-28 12:52:00,,0821.6,4.99,0.00,25.6,25.1,00.0,34.5,27.4,13.3,0000.1,0029.69,0010.12,0005.58
2022-04-28 12:53:00,,0821.5,5.00,0.00,25.6,25.1,00.0,34.5,27.4,13.4,0000.9,0027.96,0010.17,0005.58
2022-04-28 12:54:00,,0821.6,5.00,0.00,25.6,25.1,00.0,34.5,27.4,13.3,0000.6,0027.62,0010.12,0005.56
2022-04-28 12:55:00,,0821.6,5.00,0.00,25.6,25.1,00.0,34.5,27.4,13.6,0000.6,0027.51,0010.01,0005.56
2022-04-28 12:56:00,,0821.6,4.99,0.00,25.6,25.1,00.0,34.5,27.4,13.6,0000.4,0027.72,0010.02,0005.58
2022-04-28 12:57:00,,0821.5,5.00,0.00,25.6,25.1,00.0,34.5,27.4,13.9,0001.1,0027.82,0010.09,0005.59
2022-04-28 12:58:00,,0821.5,5.00,0.00,25.5,25.0,00.0,34.5,27.4,13.7,0001.3,0028.45,0010.12,0005.58
2022-04-28 12:59:00,,0821.5,5.00,0.00,25.5,25.0,00.0,34.5,27.3,13.4,0002.1,0029.51,0010.14,0005.58
